CDT,Max TemperatureF,Mean TemperatureF,Min TemperatureF,Max Dew PointF,MeanDew PointF,Min DewpointF,Max Humidity, Mean Humidity, Min Humidity, Max Sea Level PressureIn, Mean Sea Level PressureIn, Min Sea Level PressureIn, Max VisibilityMiles, Mean VisibilityMiles, Min VisibilityMiles, Max Wind SpeedMPH, Mean Wind SpeedMPH, Max Gust SpeedMPH,PrecipitationIn, CloudCover, Events, WindDirDegrees
2013-5-1,78,69,60,63,60,57,94,72,51,30.03,29.93,29.86,10,9,5,23,9,31,0.00,3,,94
2013-5-2,64,52,41,59,50,36,94,80,59,30.21,30.11,30.00,10,9,1,21,10,26,0.09,7,,350
2013-5-3,62,48,35,36,31,25,93,59,27,30.20,30.11,30.00,10,10,7,24,13,37,0.02,2,,320
2013-5-4,59,47,35,37,33,27,87,61,29,30.01,29.95,29.91,10,10,10,23,7,30,0.00,2,,306
2013-5-5,64,50,37,45,39,36,93,66,34,30.11,30.06,30.00,10,10,10,16,7,23,0.00,2,,322
2013-5-6,78,60,42,50,46,41,100,65,30,30.07,30.03,29.97,10,10,7,12,4,18,0.00,0,,322
2013-5-7,82,65,48,55,48,43,100,59,25,30.09,30.03,29.98,10,10,7,8,3,,0.00,0,,143
2013-5-8,84,68,53,57,53,50,94,60,34,30.04,29.99,29.92,10,10,10,14,6,20,0.00,0,,156
2013-5-9,69,64,59,63,60,57,100,87,64,30.04,29.97,29.91,10,7,0,10,7,,0.24,5,,131
2013-5-10,80,70,59,64,61,55,100,79,51,30.03,29.95,29.90,10,7,0,10,3,,0.05,3,,336
2013-5-11,78,66,53,55,51,43,94,62,28,30.16,30.08,30.02,10,10,10,20,7,26,0.00,0,,355
2013-5-12,77,60,42,50,40,34,93,47,21,30.27,30.21,30.15,10,10,1,12,5,17,0.00,0,,137
2013-5-13,82,65,48,48,45,41,88,50,25,30.25,30.18,30.12,10,10,7,15,5,23,0.00,0,,200
2013-5-14,86,68,51,61,51,45,88,53,23,30.17,30.10,30.02,10,10,1,14,6,21,0.00,0,,187
2013-5-15,77,68,60,64,58,50,94,74,56,30.07,30.00,29.90,10,9,0,20,9,26,1.30,4,,165
2013-5-16,66,63,60,63,61,59,100,94,88,29.94,29.85,29.78,10,8,0,14,6,18,1.90,7,,110
2013-5-17,82,72,62,72,67,61,100,87,66,29.92,29.88,29.84,10,6,2,9,4,,0.00,6,,91
2013-5-18,89,79,69,70,69,68,94,77,49,29.97,29.89,29.83,10,6,2,14,8,17,0.00,3,,152
2013-5-19,87,78,68,68,65,63,83,67,46,29.89,29.82,29.73,10,10,10,20,11,26,0.00,1,,163
2013-5-20,86,76,66,70,66,61,83,71,55,29.88,29.81,29.73,10,10,7,20,12,28,0.00,3,,163
2013-5-21,73,66,59,68,61,55,94,86,68,29.90,29.82,29.73,10,9,0,24,10,40,1.51,6,,74
2013-5-22,82,70,59,63,59,54,100,76,37,29.96,29.91,29.85,10,9,1,8,3,,0.01,4,,247
2013-5-23,86,72,59,70,63,57,100,81,45,30.11,30.02,29.94,10,10,7,12,4,,0.01,1,,74
2013-5-24,80,73,66,66,62,59,88,71,54,30.22,30.15,30.07,10,10,7,17,10,24,0.00,1,,89
2013-5-25,82,72,62,70,61,54,88,70,54,30.21,30.16,30.08,10,10,1,15,9,22,0.32,2,,104
2013-5-26,80,73,66,68,64,59,88,75,51,30.13,30.08,30.02,10,10,7,17,7,23,0.00,1,,153
2013-5-27,84,76,68,68,66,64,94,73,51,30.04,29.96,29.86,10,10,7,17,9,21,0.00,2,,168
2013-5-28,86,77,68,66,64,63,88,67,48,29.95,29.89,29.84,10,10,10,18,11,25,0.00,2,,168
2013-5-29,84,76,68,68,65,63,88,69,51,29.93,29.86,29.78,10,10,10,17,11,25,0.00,2,,150
2013-5-30,82,76,71,72,69,64,88,78,69,29.87,29.81,29.74,10,10,4,21,11,29,0.02,3,,163
2013-5-31,89,82,75,72,70,68,83,70,49,29.89,29.82,29.70,10,10,10,22,12,31,0.00,3,,169